#timestamp,LO_Frequency,Hit,StdDev 
1666425615.4,286046999.4,N
1666425635.2,286046998.3,N
1666425655.0,286046998.3,N
1666425655.9,286046998.3,N
1666425675.8,286046998.8,N
1666425695.6,286046998.3,N
1666425715.5,286046999.5,N
1666425735.3,286046998.1,N
1666425755.1,286046998.3,N
1666425775.9,286046999.3,N
1666425795.7,286046999.0,N
1666425815.5,286046998.7,N
1666425835.4,286046998.3,N
1666425855.2,286046999.3,N
1666425875.1,286046999.6,N
1666425876.0,286046999.6,N
1666425895.8,286046997.1,Y
1666425915.6,286046998.9,P
1666425935.5,286046998.9,P
1666425955.3,286047000.8,P
1666425975.2,286047001.1,N
1666425995.9,286047000.8,N
1666426015.7,286046998.9,N
1666426035.6,286046999.2,N
1666426055.4,286046999.5,N
1666426075.3,286046996.9,Y
1666426095.1,286046997.1,P
1666426096.0,286046997.1,N
1666426115.8,286046997.0,N
1666426135.7,286046996.8,N
1666426155.5,286046998.0,N
1666426175.3,286046997.1,N
1666426195.2,286046996.5,Y
1666426215.0,286047000.0,P
1666426215.9,286047000.0,N
1666426235.8,286047000.9,N
1666426255.6,286046998.6,N
1666426275.4,286047000.8,N
1666426295.3,286047000.9,N
1666426315.1,286046998.1,N
1666426335.9,286046998.7,N
1666426355.7,286047001.1,N
1666426375.5,286046998.6,N
1666426395.4,286046999.4,N
1666426415.2,286046998.3,N
1666426435.0,286046999.1,N
1666426436.0,286046999.1,N
1666426455.8,286046998.9,N
1666426475.6,286046996.6,Y
1666426495.5,286046999.1,P
1666426515.3,286046998.6,P
1666426535.1,286046996.5,P
1666426555.9,286046998.1,N
1666426575.7,286046998.6,N
1666426595.6,286046998.3,N
1666426615.4,286046998.9,N
1666426635.2,286047000.9,N
1666426655.1,286046999.4,N
1666426656.0,286046999.4,N
1666426675.8,286046996.9,Y
1666426695.6,286047000.5,P
1666426715.5,286046998.5,N
1666426735.3,286047001.1,N
1666426755.2,286047001.1,N
1666426775.9,286046998.5,N
1666426795.7,286047000.9,N
1666426815.6,286046999.7,N
1666426835.4,286047002.5,N
1666426855.2,286047000.4,N
1666426875.1,286047000.7,N
1666426876.0,286047000.7,N
1666426895.8,286047001.2,N
1666426915.7,286046998.8,N
1666426935.5,286046999.3,N
1666426955.3,286046998.2,N
1666426975.2,286047000.8,N
1666426995.0,286047001.2,N
1666426995.9,286047001.2,N
1666427015.8,286047001.1,N
1666427035.6,286047001.1,N
1666427055.4,286047000.9,N
1666427075.3,286046998.6,N
1666427095.1,286046999.4,N
1666427115.8,286046999.1,N
1666427135.7,286046999.2,N
1666427155.5,286046999.6,N
1666427175.4,286046999.0,N
1666427195.2,286046999.1,N
1666427215.0,286046999.5,N
1666427215.9,286046999.5,N
1666427235.8,286046999.3,N
1666427255.6,286046999.3,N
1666427275.4,286046998.6,N
1666427295.3,286047001.1,N
1666427315.1,286047000.5,N
1666427335.9,286046998.4,N
1666427355.7,286046999.0,N
1666427375.5,286046998.6,N
1666427395.4,286046999.2,N
1666427415.2,286046999.4,N
1666427435.0,286046998.7,N
1666427435.9,286046998.7,N
1666427455.8,286046998.4,N
1666427475.6,286046998.1,N
1666427495.5,286047000.7,N
1666427515.3,286047001.0,N
1666427535.1,286047000.7,N
1666427555.9,286046999.7,N
1666427575.7,286047002.6,N
1666427595.5,286047000.4,N
1666427615.4,286046999.8,N
1666427635.2,286047000.2,N
1666427655.1,286047002.7,N
1666427656.0,286047002.7,N
1666427675.8,286047000.1,N
1666427695.6,286046998.5,N
1666427715.5,286047000.9,N
1666427735.3,286047000.1,N
1666427755.1,286047000.9,N
1666427775.9,286047000.0,N
1666427795.7,286047000.3,N
1666427815.6,286047002.6,N
1666427835.4,286046999.8,N
1666427855.2,286047002.5,N
1666427875.1,286047002.0,N
1666427876.0,286047002.0,N
1666427895.8,286047002.1,N
1666427915.7,286047002.4,N
1666427935.5,286047002.6,N
1666427955.3,286047002.0,N
1666427975.2,286047002.5,N
1666427995.0,286047002.5,N
1666427995.9,286047002.5,N
1666428015.7,286047001.5,N
1666428035.6,286047002.6,N
1666428055.4,286047002.0,N
1666428075.3,286047001.5,N
1666428095.1,286047001.7,N
1666428096.0,286047001.7,N
1666428115.8,286047004.3,Y
1666428135.7,286047002.8,P
1666428155.5,286046999.8,N
1666428175.3,286047001.1,N
1666428195.2,286047001.0,N
1666428215.0,286047001.1,N
1666428215.9,286047001.1,N
1666428235.8,286047000.8,N
1666428255.6,286047000.8,N
1666428275.4,286046999.0,N
1666428295.3,286046999.6,N
1666428315.1,286046999.9,N
1666428335.9,286047002.2,N
1666428355.7,286047001.8,N
1666428375.5,286047001.4,N
1666428395.4,286047002.4,N
1666428415.2,286046999.4,N
1666428435.0,286046998.8,N
1666428435.9,286046998.8,N
1666428455.8,286046998.7,N
1666428475.6,286046998.6,N
1666428495.5,286046998.1,N
1666428515.3,286046998.4,N
1666428535.1,286047000.5,N
1666428555.9,286047000.7,N
1666428575.7,286046996.9,N
1666428595.6,286047001.1,N
1666428615.4,286047000.0,N
1666428635.2,286047002.4,N
1666428655.1,286047002.1,N
1666428656.0,286047002.1,N
1666428675.8,286047001.7,N
1666428695.6,286047003.1,N
1666428715.5,286047004.3,N
1666428735.3,286046999.9,N
1666428755.2,286047000.0,N
1666428775.9,286047001.0,N
1666428795.7,286047002.4,N
1666428815.6,286047003.5,N
1666428835.4,286047003.5,N
1666428855.2,286047003.3,N
1666428875.1,286047004.0,N
1666428876.0,286047004.0,N
1666428895.8,286046999.7,N
1666428915.7,286046998.5,N
1666428935.5,286047002.1,N
1666428955.3,286047004.1,N
1666428975.2,286047004.2,N
1666428995.0,286047003.4,N
1666428995.9,286047003.4,N
1666429015.8,286047002.6,N
1666429035.6,286047002.6,N
1666429055.4,286047002.0,N
1666429075.3,286047004.2,N
1666429095.1,286047003.7,N
1666429115.8,286047002.1,N
1666429135.7,286047003.8,N
1666429155.5,286047004.4,N
1666429175.4,286047001.8,N
1666429195.2,286047001.7,N
